Location: Houhaj�rvi
(61.2667°N, 23.0167°E)
Time: 18:30:18
(UTC+00:00)

H-2A R/B - Pass Details

Date: 13 December 2019
Orbit: 733 x 837 km, 98.2° (Epoch: 16 January)

Event Time Altitude Azimuth Distance (km) Brightness Sun altitude
Exits shadow 18:00:41 28° 338° (NNW) 1,392 3.5 -32.0°
Drops below altitude 10° 18:02:59 10° 341° (NNW) 2,272 4.7 -32.2°
Sets 18:05:15 0° 343° (NNW) 3,191 5.6 -32.5°
